Wind_Speed
30 32 33 34 35 36 37 37 37 37 37 37 38 38 39 40 41 42 43 45 47 49 52 54 56 58 61 63 65 65 65 66 67 66 65 63 61 61 61 61 60 56 55 55 52 51 52 52 51 51 51 50 50 51 53 54 55 55 55 55 55 54 56
32 33 34 35 36 37 37 37 37 38 38 38 39 39 40 41 42 43 45 47 49 52 55 58 61 63 65 66 66 67 66 65 66 67 69 68 66 65 63 62 62 62 60 58 53 51 53 54 55 55 53 51 50 49 48 49 50 50 48 50 51 51 53
34 35 36 36 36 36 36 36 36 36 36 37 38 39 41 42 43 45 48 50 53 57 60 63 66 68 70 71 72 72 71 68 66 66 68 69 70 69 67 63 62 63 64 63 62 59 56 56 59 60 58 56 54 52 50 50 50 49 47 47 47 47 47
36 36 37 37 37 36 36 35 34 34 34 35 36 38 40 42 44 47 50 53 56 60 64 67 69 71 73 75 76 76 76 75 72 70 69 70 69 68 69 67 62 62 64 66 67 66 62 62 63 63 61 59 58 57 56 55 54 53 51 49 48 47 47
37 37 38 38 38 37 37 36 35 35 35 36 36 38 40 43 46 49 52 56 60 63 66 69 71 73 74 76 77 77 77 76 75 74 73 73 72 69 69 68 64 59 60 65 68 68 68 67 66 67 65 62 62 61 59 59 57 56 54 51 51 52 51
39 39 40 40 40 40 40 40 39 38 38 38 39 40 42 45 48 52 55 59 62 65 67 69 70 72 72 73 73 74 73 72 72 72 73 73 74 73 70 69 68 64 60 62 63 64 68 68 66 67 67 66 65 63 62 61 59 57 55 53 55 56 54
41 42 42 43 43 44 44 44 44 43 42 42 43 44 46 48 51 55 58 61 64 66 68 68 69 69 69 68 68 67 67 66 65 65 67 68 70 72 71 71 73 72 68 65 63 61 63 65 66 67 67 67 66 64 62 60 59 58 55 53 56 55 52
44 44 45 46 47 48 49 49 49 48 47 47 47 48 49 52 55 58 61 64 66 67 68 68 68 67 66 64 62 61 60 59 59 58 59 61 62 65 68 70 74 77 75 73 70 65 59 57 62 65 66 66 66 64 61 59 58 56 53 56 59 56 52
47 48 49 51 52 52 53 53 53 52 52 51 51 52 54 56 60 63 65 68 69 69 69 67 66 65 63 61 58 56 54 53 53 52 53 54 56 59 62 66 71 77 78 76 75 70 60 54 55 57 58 60 61 60 60 60 58 55 55 59 60 56 53
50 51 53 54 55 55 55 56 56 56 56 56 56 57 59 62 65 68 70 72 72 71 69 66 64 63 60 57 53 51 48 47 46 46 47 49 51 53 56 61 67 71 74 75 74 73 67 60 56 55 57 57 57 57 57 58 58 57 56 56 54 52 51
53 54 55 56 57 57 58 60 60 60 60 60 61 62 64 66 69 72 74 75 74 72 69 66 63 60 56 52 49 45 43 41 41 40 41 43 46 47 51 57 62 65 68 70 71 71 71 67 62 59 58 57 56 56 55 56 58 57 55 55 54 51 49
55 56 57 58 59 61 62 63 64 64 64 64 64 65 67 70 73 76 77 77 76 73 69 66 62 57 52 48 45 41 38 36 36 35 35 37 40 42 47 53 57 59 62 64 65 67 70 69 66 62 61 59 59 59 58 57 57 54 54 57 54 48 46
57 58 59 61 62 63 64 66 67 67 66 66 67 68 70 73 76 79 80 79 78 74 70 65 61 55 50 45 41 37 33 31 31 30 30 32 34 37 43 48 51 53 56 57 60 64 66 67 67 65 63 62 62 62 61 59 56 54 56 56 50 44 43
59 60 62 63 64 65 66 68 69 69 69 68 69 70 72 75 78 81 82 82 80 75 70 65 59 54 48 42 38 34 30 27 26 25 26 28 31 34 39 43 46 48 51 52 56 59 61 64 66 66 65 64 64 64 63 60 58 56 54 48 42 40 40
61 62 64 65 66 67 68 69 71 71 71 70 70 71 73 76 79 82 84 84 82 77 71 65 59 53 48 41 36 31 27 24 23 22 22 25 29 33 36 38 41 45 47 49 51 54 57 61 63 64 66 66 65 65 63 59 56 52 46 40 38 38 37
63 64 65 66 67 68 69 71 72 73 72 71 71 72 74 77 81 84 85 85 84 79 74 67 60 53 47 41 35 30 26 22 20 20 20 22 26 30 32 34 37 41 44 46 48 50 53 57 60 62 64 64 64 63 59 56 52 47 40 36 36 35 33
65 65 66 67 68 69 70 72 73 73 73 72 72 74 76 78 82 85 86 86 84 80 74 68 61 54 47 41 35 30 25 21 18 17 17 19 23 25 28 30 33 37 40 43 45 47 49 52 55 57 59 60 61 59 56 53 50 45 38 34 33 31 27
65 66 66 68 69 70 70 72 74 75 74 73 74 75 77 80 83 86 87 86 85 81 75 68 62 55 47 41 35 29 24 19 16 15 15 17 20 22 25 28 30 34 38 42 45 46 48 50 51 53 55 57 58 56 53 49 45 40 34 31 31 27 23
66 66 67 69 70 70 70 72 75 76 75 74 74 76 78 81 84 87 88 87 85 82 76 68 62 55 48 42 35 28 23 18 14 13 13 15 17 20 24 27 30 34 38 41 44 45 47 49 50 51 53 54 54 53 50 45 40 35 31 30 27 22 22
66 67 68 69 70 69 69 72 75 77 76 75 75 76 79 82 85 88 89 88 86 83 77 70 62 56 49 43 35 28 22 18 14 11 10 10 12 16 21 26 30 33 37 40 43 45 47 49 49 49 50 50 50 49 46 41 36 32 29 26 22 20 24
67 67 68 70 70 70 70 72 76 78 77 76 75 77 79 83 86 89 90 90 87 84 79 72 64 57 50 43 35 27 21 17 14 11 7 5 8 15 20 24 28 32 36 39 42 44 46 47 48 49 49 48 46 43 41 38 35 31 27 22 19 22 27
68 68 69 70 71 70 70 72 76 78 78 76 76 77 79 83 86 89 90 90 88 85 80 73 66 59 51 44 36 27 20 16 12 9 4 5 9 15 20 24 27 30 34 37 39 42 44 46 48 48 47 46 43 40 39 37 33 28 24 20 21 25 29
68 68 69 70 71 70 70 72 76 78 78 77 76 77 79 83 86 88 90 90 89 85 81 75 68 61 54 45 37 28 21 15 11 7 3 6 10 14 18 22 26 29 33 36 39 41 43 45 45 44 43 43 41 40 38 35 30 26 23 23 25 28 30
69 68 68 70 71 71 70 71 75 78 78 77 76 77 79 82 85 88 89 90 89 86 82 77 70 63 56 47 38 29 21 15 10 7 1 5 10 12 15 18 23 27 30 32 35 39 42 42 41 40 40 40 38 36 34 31 27 24 23 24 26 28 29
69 68 68 70 71 71 70 71 75 78 78 77 76 77 78 81 84 87 88 89 89 87 84 79 72 66 58 49 39 30 22 16 11 8 3 5 8 10 13 18 22 25 27 30 33 37 39 38 37 37 36 34 31 28 26 25 23 22 21 21 22 24 26
68 68 67 69 71 71 70 71 74 77 78 77 76 76 78 79 83 86 87 88 89 88 85 80 75 68 60 52 42 33 25 19 14 9 5 5 7 9 12 17 22 25 27 30 33 35 35 33 33 32 30 28 24 22 21 21 21 20 19 19 22 24 26
68 67 67 69 70 71 70 71 73 76 77 77 76 75 76 78 81 84 86 87 88 88 86 82 77 70 63 57 49 39 30 23 18 13 7 5 6 8 12 16 20 24 28 30 31 31 30 29 28 27 25 24 21 20 20 20 20 19 19 20 23 25 26
67 66 67 69 70 70 70 71 73 75 76 76 75 74 75 77 79 82 84 86 87 87 86 83 79 73 68 64 56 46 36 29 24 19 12 6 4 7 10 13 17 22 25 27 28 27 25 24 24 24 23 22 20 19 20 20 20 19 20 22 24 25 24
66 66 67 69 69 69 69 70 72 74 75 75 74 73 74 76 78 80 82 85 86 86 85 84 80 75 71 67 61 51 41 33 28 23 17 10 4 3 7 11 14 18 21 23 23 23 22 22 21 20 20 19 18 18 20 20 20 20 21 23 24 24 22
66 66 67 68 68 68 68 69 71 73 73 73 73 72 72 74 76 78 80 82 84 85 84 83 81 76 71 67 63 54 43 34 29 25 21 15 9 3 2 6 9 13 16 18 18 17 17 17 17 16 16 16 16 18 20 21 21 22 23 23 24 23 21
66 66 66 67 66 66 66 67 69 71 71 72 72 71 71 72 74 76 78 80 82 83 82 82 80 76 71 66 62 56 46 36 28 24 21 16 12 7 3 4 7 9 10 11 12 12 12 14 16 16 16 16 17 19 21 22 22 22 21 22 21 20 18
66 66 66 66 65 65 64 64 67 69 70 69 70 70 70 70 72 75 77 78 80 81 81 80 79 76 72 66 61 57 50 39 28 22 18 15 12 9 6 5 9 11 9 8 9 10 11 14 16 16 15 16 17 19 21 20 20 20 19 19 17 16 17
66 66 66 66 65 64 63 63 65 67 67 67 67 68 68 69 71 73 75 76 77 78 78 79 78 76 72 68 62 56 51 43 32 22 16 13 11 10 8 8 11 13 12 10 11 12 13 14 15 15 15 15 16 19 19 18 19 20 19 18 17 15 16
66 67 66 65 65 64 63 63 64 66 66 65 66 67 67 68 69 70 73 74 75 76 76 76 75 74 71 68 63 57 52 46 37 27 17 11 9 8 8 9 12 13 13 13 13 14 14 15 15 15 15 16 18 19 19 18 20 22 21 19 18 17 17
66 67 66 66 65 65 64 64 65 66 66 65 65 66 66 67 68 69 70 72 73 74 74 73 72 71 70 67 63 59 53 47 41 32 22 13 8 5 5 9 12 13 14 15 15 15 15 15 15 15 16 18 20 20 20 22 24 24 22 20 19 18 18
66 66 66 66 66 65 64 64 65 66 66 65 65 65 66 67 68 68 69 70 71 73 73 73 71 69 68 65 62 59 54 49 44 37 28 19 12 8 6 8 11 13 14 14 15 16 16 16 15 15 16 19 21 23 25 26 27 25 23 21 20 19 18
65 65 65 65 65 64 64 64 65 66 66 66 65 65 66 67 67 68 68 69 70 71 72 73 72 69 67 65 62 58 55 51 46 40 34 26 18 13 9 9 11 13 14 15 16 17 18 17 16 16 16 19 22 24 26 26 26 25 23 22 21 19 18
Wind_Direction
351 348 345 342 339 336 333 330 327 324 321 318 314 311 308 305 303 300 298 295 293 290 287 284 281 278 275 272 270 268 265 263 262 261 260 260 261 260 258 257 257 258 260 263 267 268 269 270 269 268 268 269 272 273 274 276 278 281 283 284 285 284 283
355 353 350 347 343 339 335 332 328 325 322 319 315 312 309 306 303 301 298 295 292 290 287 285 283 282 281 279 277 275 272 269 266 265 262 259 259 260 260 259 256 254 255 257 261 263 267 270 269 269 270 271 272 271 273 275 277 279 282 285 287 286 285
358 356 353 350 346 342 337 333 328 324 320 316 313 309 306 303 301 299 296 294 291 289 287 285 285 284 283 282 281 280 278 276 272 269 265 262 260 259 259 259 258 255 253 253 254 256 259 264 266 269 271 272 273 272 273 274 276 279 282 285 289 288 287
359 357 355 352 349 345 340 334 328 322 318 314 310 307 306 304 302 300 299 297 295 293 291 290 289 287 286 284 282 281 279 278 276 272 269 266 263 260 259 260 259 257 254 252 252 253 255 258 262 266 269 270 272 273 274 274 276 281 283 284 287 289 291
359 357 356 354 351 348 344 339 334 328 322 318 314 312 311 309 308 306 304 302 301 299 297 295 293 291 288 286 283 281 279 276 275 272 269 267 265 263 260 260 259 257 255 252 251 252 254 256 259 262 265 267 270 272 273 274 276 281 282 282 285 288 291
358 357 356 355 353 351 348 344 340 335 330 325 321 318 316 314 312 311 309 307 306 304 303 301 298 294 291 288 285 283 280 276 273 270 267 264 263 261 259 258 257 256 255 254 252 251 252 254 256 259 262 263 266 268 270 272 274 277 280 281 284 288 290
358 357 356 355 354 353 351 348 345 341 336 331 327 323 320 317 316 314 313 312 311 311 309 307 303 299 295 292 289 286 282 278 274 270 266 262 259 258 256 253 253 253 253 254 253 252 252 253 254 256 259 261 263 265 267 269 271 274 276 280 285 287 289
357 356 356 356 355 354 353 350 347 344 340 336 331 327 324 322 320 319 319 319 319 319 316 313 308 304 301 297 293 289 285 280 275 270 265 261 256 253 251 248 247 249 250 251 252 252 251 251 252 254 256 258 260 262 265 267 270 272 274 280 284 285 288
357 357 356 356 355 354 353 351 349 346 343 339 336 332 330 328 326 326 326 326 326 325 322 318 313 309 305 302 298 293 288 282 276 271 265 260 255 251 247 244 243 245 247 248 250 251 248 246 248 251 254 256 258 260 263 266 269 273 277 280 282 282 286
357 357 356 355 354 354 353 352 350 347 345 342 340 337 335 333 332 331 331 332 332 330 326 322 318 314 310 307 302 297 291 284 278 271 264 258 253 249 245 241 240 242 245 247 248 250 248 245 246 250 254 257 258 259 261 263 267 272 277 279 280 283 286
356 356 355 354 353 353 353 352 351 349 347 345 343 341 339 337 336 335 335 335 336 334 331 327 323 319 315 312 307 301 294 287 279 272 264 257 252 247 242 240 239 239 241 243 245 247 247 246 246 248 252 255 257 259 260 262 266 270 274 276 281 284 286
355 355 354 354 353 353 353 352 352 350 348 346 345 343 342 340 339 338 338 339 340 338 335 332 327 324 321 317 312 306 299 290 282 273 264 257 250 244 239 238 238 238 238 240 242 243 244 245 244 245 248 251 254 257 259 261 265 268 270 275 281 284 285
354 354 354 354 353 352 352 352 352 350 349 348 346 345 344 343 341 340 340 342 343 341 339 336 332 329 327 323 317 311 304 295 285 275 265 256 249 242 238 236 235 236 236 237 238 240 241 243 243 243 245 248 251 255 259 261 263 266 269 274 280 282 283
353 353 354 353 352 352 352 352 352 351 350 349 348 347 346 345 344 342 343 345 346 344 342 340 337 334 332 329 323 317 310 300 289 277 265 253 245 238 235 234 232 232 233 234 235 237 239 241 242 242 244 247 250 253 257 260 263 266 269 273 277 281 283
352 353 353 352 351 351 351 352 352 351 350 349 349 348 348 347 345 344 345 347 348 347 345 344 341 339 337 333 329 323 315 304 291 278 263 250 241 236 232 230 229 228 228 229 232 234 237 240 241 241 243 247 250 253 256 259 262 263 266 272 277 280 281
352 352 352 351 351 351 352 352 352 351 350 350 349 349 349 348 347 347 347 350 350 349 348 347 345 344 341 338 334 329 320 309 294 279 264 250 241 237 232 228 225 224 224 225 227 230 233 236 238 239 241 245 249 253 255 257 260 262 266 273 277 278 280
350 351 351 351 351 351 352 352 352 351 350 350 350 351 350 350 350 349 349 351 352 351 351 349 348 347 345 341 339 334 326 315 299 282 265 249 240 235 231 226 223 221 220 220 222 226 229 232 235 236 238 241 245 250 253 256 259 264 269 274 275 276 280
349 349 350 350 351 351 351 351 352 351 351 351 352 352 351 351 351 351 350 353 354 353 353 352 351 350 348 345 343 339 332 322 306 287 266 248 237 229 225 222 218 217 216 216 219 223 226 229 230 231 233 237 242 247 252 255 260 265 269 271 272 275 283
348 348 349 350 351 351 350 351 352 352 352 352 352 353 353 353 353 352 352 354 356 356 354 355 354 352 351 349 347 343 337 329 313 293 271 251 234 220 215 213 211 211 212 214 218 222 223 224 226 228 232 236 241 246 250 254 259 265 267 267 270 276 281
347 347 349 350 351 350 350 351 352 353 352 352 353 354 354 354 354 354 353 354 358 358 356 356 357 356 355 353 351 348 344 336 320 299 279 261 238 215 207 208 207 208 210 213 217 220 221 222 224 227 231 236 240 245 249 252 256 262 264 266 270 273 272
347 347 348 349 350 350 350 351 352 353 353 353 354 355 355 356 356 355 354 354 358 0 359 358 359 359 358 356 354 352 350 344 330 310 289 254 223 209 202 203 205 206 209 213 217 219 220 221 222 225 230 234 237 242 247 250 255 260 262 262 263 265 265
347 347 348 349 350 350 350 351 352 353 353 353 354 356 357 357 357 356 355 355 358 1 1 0 1 1 2 360 357 356 356 353 341 322 284 195 200 206 201 199 201 204 207 211 215 217 218 219 222 226 230 234 237 240 244 250 255 258 257 253 255 260 264
347 347 347 348 349 350 350 351 352 353 353 354 355 357 358 358 358 357 356 356 358 2 3 3 3 4 5 4 1 359 360 359 353 338 277 194 192 203 204 200 198 201 206 210 212 214 216 220 225 229 231 235 237 238 243 251 255 253 250 248 251 258 265
347 346 347 348 349 349 350 351 352 353 354 354 355 357 359 359 359 358 358 357 358 2 5 5 5 6 8 7 5 4 4 5 7 8 350 185 185 196 203 199 196 199 204 209 212 214 217 221 225 227 230 234 237 240 246 250 249 247 247 249 255 263 270
346 346 346 347 348 349 350 351 352 353 354 355 356 357 359 360 360 359 359 358 358 1 5 7 7 8 10 11 11 10 12 14 20 30 66 160 172 183 190 191 193 197 200 204 208 213 217 221 223 226 230 235 239 243 245 244 243 243 245 251 261 268 274
345 346 346 347 348 348 350 351 352 353 354 355 356 357 359 0 0 0 0 0 360 1 4 8 9 9 12 15 17 18 21 23 27 37 65 133 152 168 181 188 191 194 196 200 207 213 219 222 224 227 231 235 238 239 237 236 238 239 240 248 259 266 273
345 345 346 347 348 348 349 351 352 353 354 355 356 357 359 360 1 1 1 1 1 1 3 7 10 10 13 17 20 21 24 28 30 34 48 94 133 158 177 186 190 192 195 201 207 215 220 223 226 228 231 233 232 229 227 231 234 235 239 248 257 264 272
344 345 346 347 347 348 349 350 352 353 354 355 355 356 358 360 1 2 2 2 3 3 3 6 9 12 14 17 19 19 22 26 29 29 30 48 109 155 174 182 188 192 197 201 208 214 220 223 226 227 229 228 223 220 222 227 230 232 239 247 254 262 271
343 344 346 347 347 348 349 350 351 352 353 354 355 356 358 359 0 2 3 4 4 4 4 5 8 12 15 16 17 17 18 20 24 25 21 20 40 140 173 182 188 194 200 205 210 214 217 219 222 224 222 217 213 214 217 221 226 233 240 246 254 264 272
342 344 345 346 347 348 349 350 351 352 352 353 354 356 357 359 360 1 3 5 5 5 6 6 7 11 14 16 16 16 15 15 17 19 17 10 4 9 176 189 193 197 202 206 211 213 214 214 213 209 206 205 208 213 213 215 224 233 239 248 258 267 271
341 342 344 345 346 348 349 349 350 351 352 352 354 355 356 358 359 1 3 5 6 6 7 7 7 9 12 15 16 15 14 13 12 14 14 6 352 342 311 220 211 210 208 206 207 210 209 203 195 190 192 200 210 213 210 215 227 236 244 255 262 265 265
339 340 342 344 345 347 348 349 350 351 351 352 353 354 355 357 359 0 2 4 6 7 7 8 8 8 9 12 15 15 13 11 9 9 10 3 345 327 304 242 223 225 227 219 214 213 207 196 188 186 192 204 213 211 207 216 234 245 254 261 258 254 260
338 338 340 342 344 346 347 348 349 350 350 351 352 353 354 356 358 359 1 3 5 7 8 8 9 8 8 9 11 13 13 10 6 3 4 360 345 324 301 258 230 228 230 226 221 215 205 196 191 191 198 207 212 206 203 217 236 245 253 256 250 249 262
336 337 339 341 342 344 345 346 347 348 349 350 351 353 353 355 356 358 360 1 3 5 7 9 9 9 8 7 7 8 10 11 7 0 354 351 345 327 297 263 239 231 228 225 222 216 208 202 198 200 205 205 200 197 205 225 238 241 247 249 246 250 263
334 335 337 339 341 343 344 344 345 347 348 349 351 352 353 354 355 356 358 360 1 3 5 7 8 9 9 8 6 5 6 8 8 2 352 338 326 316 285 258 244 236 231 227 223 218 216 213 208 209 209 202 195 202 217 230 235 238 243 244 243 249 262
333 334 336 338 340 341 342 343 344 345 347 348 349 351 352 353 353 354 356 358 359 1 2 4 6 8 8 8 7 4 3 4 5 4 356 340 318 295 264 244 242 239 234 231 226 222 223 224 221 220 215 205 204 212 221 226 230 235 240 241 241 248 259
331 332 334 336 338 339 341 342 342 344 345 347 348 350 351 352 352 352 354 355 357 359 1 2 3 5 6 7 7 6 3 1 1 2 360 350 329 304 275 245 236 237 236 234 231 229 229 230 229 228 223 217 217 221 224 227 231 235 239 240 240 246 257
Height
10687 10684 10680 10676 10672 10668 10664 10660 10656 10653 10649 10645 10642 10638 10635 10632 10628 10624 10621 10617 10613 10609 10604 10600 10596 10592 10588 10584 10582 10581 10582 10582 10580 10579 10577 10575 10575 10577 10578 10578 10579 10579 10578 10578 10578 10577 10575 10575 10574 10574 10574 10576 10576 10575 10575 10574 10573 10573 10572 10570 10571 10570 10566
10686 10682 10679 10675 10670 10666 10662 10658 10654 10650 10646 10643 10639 10635 10631 10628 10624 10620 10616 10612 10607 10602 10596 10591 10586 10582 10578 10575 10572 10570 10571 10572 10572 10570 10568 10567 10567 10567 10567 10568 10571 10572 10572 10573 10573 10570 10567 10565 10565 10565 10567 10569 10570 10570 10570 10569 10568 10569 10568 10566 10565 10563 10561
10684 10681 10677 10673 10669 10665 10661 10657 10653 10649 10645 10641 10636 10632 10628 10624 10620 10615 10611 10606 10600 10594 10588 10583 10577 10573 10569 10564 10560 10558 10557 10558 10560 10559 10557 10555 10557 10558 10557 10558 10561 10563 10564 10566 10565 10564 10563 10558 10555 10557 10559 10561 10563 10563 10564 10564 10562 10563 10563 10562 10560 10557 10556
10683 10680 10676 10672 10669 10664 10660 10656 10652 10647 10643 10639 10634 10630 10625 10620 10615 10610 10605 10599 10593 10586 10580 10574 10567 10562 10557 10551 10547 10544 10542 10542 10543 10544 10543 10542 10544 10547 10547 10548 10551 10553 10554 10556 10556 10557 10558 10553 10549 10550 10552 10554 10555 10556 10557 10557 10557 10557 10557 10557 10554 10551 10551
10683 10679 10675 10671 10667 10663 10659 10654 10650 10645 10640 10635 10631 10626 10621 10616 10610 10604 10598 10592 10584 10577 10570 10563 10556 10549 10542 10536 10531 10528 10526 10526 10526 10527 10528 10528 10530 10534 10537 10537 10540 10543 10543 10543 10545 10548 10549 10548 10544 10543 10546 10548 10548 10549 10551 10551 10552 10552 10552 10551 10549 10546 10547
10681 10678 10674 10670 10666 10661 10656 10652 10647 10642 10636 10631 10626 10621 10616 10610 10604 10598 10591 10584 10576 10568 10559 10551 10543 10534 10527 10521 10516 10511 10509 10509 10510 10511 10512 10514 10516 10520 10525 10527 10529 10532 10532 10531 10535 10539 10540 10540 10539 10537 10538 10540 10541 10544 10545 10545 10546 10546 10546 10545 10543 10542 10542
10680 10676 10672 10667 10663 10658 10653 10648 10643 10638 10632 10627 10621 10616 10610 10604 10598 10590 10583 10575 10566 10557 10548 10538 10528 10519 10512 10506 10501 10497 10494 10493 10493 10495 10497 10499 10503 10506 10512 10517 10517 10518 10520 10521 10524 10529 10531 10532 10532 10531 10531 10532 10535 10538 10539 10540 10540 10540 10541 10540 10538 10538 10538
10677 10673 10669 10664 10658 10653 10648 10643 10638 10633 10627 10622 10616 10610 10603 10597 10590 10582 10574 10565 10556 10546 10535 10524 10513 10504 10497 10492 10487 10483 10480 10478 10477 10479 10482 10485 10489 10493 10499 10504 10504 10503 10507 10510 10513 10518 10523 10525 10523 10522 10524 10526 10529 10532 10533 10535 10534 10535 10537 10535 10533 10533 10533
10674 10669 10664 10659 10654 10649 10644 10639 10634 10628 10623 10616 10610 10603 10596 10588 10581 10572 10563 10554 10544 10533 10522 10511 10500 10491 10484 10478 10473 10469 10467 10465 10463 10465 10468 10471 10475 10481 10486 10491 10491 10490 10495 10499 10503 10508 10514 10517 10515 10514 10517 10519 10523 10526 10528 10529 10529 10530 10532 10530 10528 10529 10529
10670 10665 10660 10655 10650 10646 10640 10635 10629 10623 10617 10610 10603 10595 10587 10579 10571 10562 10552 10543 10533 10522 10510 10499 10489 10480 10472 10466 10461 10457 10454 10453 10452 10453 10455 10458 10463 10469 10474 10478 10478 10481 10487 10491 10495 10500 10505 10509 10510 10510 10511 10513 10516 10520 10522 10523 10523 10525 10527 10525 10524 10525 10524
10667 10662 10657 10653 10648 10642 10637 10630 10624 10617 10610 10603 10596 10588 10579 10571 10562 10553 10543 10533 10523 10512 10500 10489 10478 10469 10462 10456 10450 10446 10444 10441 10441 10442 10444 10447 10452 10458 10463 10466 10469 10474 10479 10483 10489 10493 10496 10501 10506 10507 10506 10507 10510 10514 10517 10519 10519 10521 10522 10521 10520 10521 10520
10664 10659 10655 10649 10644 10638 10632 10625 10619 10612 10605 10598 10590 10581 10573 10564 10554 10544 10534 10525 10514 10502 10490 10479 10468 10460 10453 10447 10441 10437 10435 10432 10431 10433 10435 10438 10442 10447 10452 10456 10461 10467 10471 10477 10483 10486 10489 10494 10500 10503 10502 10503 10505 10508 10512 10514 10515 10517 10517 10516 10517 10518 10517
10662 10657 10651 10645 10639 10633 10628 10621 10615 10608 10601 10593 10584 10576 10567 10557 10547 10537 10526 10516 10506 10494 10482 10471 10460 10452 10445 10439 10433 10429 10427 10425 10424 10425 10427 10430 10433 10438 10443 10448 10455 10461 10466 10472 10477 10479 10483 10487 10492 10496 10498 10499 10501 10503 10506 10509 10511 10513 10513 10513 10515 10515 10513
10659 10653 10647 10641 10636 10631 10625 10618 10611 10603 10596 10588 10580 10571 10562 10552 10542 10531 10519 10508 10497 10486 10475 10464 10453 10445 10438 10432 10427 10423 10421 10419 10418 10418 10420 10422 10426 10430 10435 10441 10448 10453 10459 10466 10471 10474 10478 10482 10486 10490 10492 10494 10496 10498 10501 10505 10507 10509 10510 10511 10512 10510 10509
10656 10650 10644 10639 10633 10628 10622 10614 10607 10600 10592 10584 10576 10567 10558 10548 10537 10526 10514 10503 10490 10478 10467 10457 10448 10440 10433 10427 10422 10419 10417 10414 10413 10413 10414 10416 10418 10422 10428 10434 10441 10447 10454 10461 10466 10470 10474 10476 10480 10485 10487 10488 10491 10493 10497 10501 10503 10505 10507 10508 10508 10507 10505
10653 10647 10642 10637 10631 10625 10618 10611 10604 10596 10589 10581 10573 10564 10554 10544 10533 10521 10510 10498 10485 10472 10461 10451 10443 10435 10428 10422 10418 10415 10412 10411 10409 10409 10410 10411 10413 10417 10423 10429 10435 10442 10449 10456 10461 10465 10469 10471 10474 10478 10482 10483 10485 10489 10493 10496 10497 10500 10504 10505 10504 10503 10503
10651 10645 10640 10635 10629 10622 10615 10608 10602 10594 10586 10578 10569 10560 10550 10540 10529 10517 10505 10495 10482 10469 10458 10448 10438 10431 10425 10419 10415 10411 10409 10408 10407 10406 10407 10408 10410 10414 10419 10425 10430 10437 10444 10450 10455 10459 10463 10466 10469 10473 10476 10478 10480 10484 10488 10491 10493 10497 10500 10501 10501 10500 10500
10649 10643 10638 10632 10625 10619 10613 10607 10600 10592 10583 10575 10566 10556 10546 10536 10526 10514 10502 10492 10480 10467 10456 10446 10436 10428 10422 10416 10412 10409 10406 10405 10405 10404 10404 10405 10407 10411 10416 10421 10427 10433 10439 10445 10450 10454 10458 10461 10464 10468 10471 10473 10476 10481 10485 10488 10491 10494 10497 10498 10497 10498 10498
10647 10641 10636 10629 10623 10617 10612 10605 10597 10589 10580 10572 10563 10553 10543 10532 10522 10511 10499 10489 10478 10465 10453 10444 10435 10426 10420 10415 10411 10407 10405 10404 10403 10402 10403 10404 10405 10408 10412 10417 10423 10429 10435 10441 10446 10450 10453 10456 10460 10464 10467 10470 10474 10478 10482 10486 10489 10492 10493 10494 10494 10495 10495
10645 10639 10633 10627 10621 10616 10609 10602 10594 10586 10577 10569 10560 10551 10540 10529 10518 10508 10496 10486 10477 10464 10452 10442 10434 10426 10419 10413 10410 10406 10404 10403 10402 10401 10402 10403 10405 10408 10411 10415 10421 10426 10432 10438 10442 10446 10450 10454 10458 10461 10464 10468 10472 10476 10480 10484 10487 10489 10490 10491 10492 10493 10493
10643 10637 10631 10625 10619 10613 10606 10599 10592 10584 10575 10567 10558 10549 10538 10527 10516 10505 10494 10484 10475 10465 10452 10441 10433 10425 10419 10413 10409 10406 10404 10403 10402 10401 10402 10403 10406 10408 10411 10415 10420 10425 10430 10435 10439 10443 10447 10452 10456 10459 10462 10466 10470 10474 10478 10481 10484 10486 10487 10489 10491 10491 10491
10641 10635 10629 10623 10617 10610 10604 10597 10590 10582 10573 10565 10557 10547 10537 10526 10515 10505 10494 10483 10474 10464 10453 10443 10433 10426 10419 10413 10409 10406 10404 10403 10402 10402 10403 10404 10405 10407 10410 10414 10419 10424 10429 10433 10437 10441 10446 10450 10453 10456 10460 10465 10469 10474 10476 10478 10481 10484 10486 10488 10489 10489 10489
10639 10633 10626 10620 10615 10609 10602 10595 10588 10580 10572 10563 10555 10546 10536 10525 10515 10505 10494 10483 10474 10465 10454 10444 10435 10427 10420 10414 10410 10407 10405 10403 10403 10403 10404 10404 10406 10408 10411 10415 10419 10424 10428 10432 10436 10440 10444 10447 10451 10456 10460 10464 10468 10472 10475 10477 10480 10482 10485 10487 10487 10487 10486
10637 10631 10625 10618 10612 10607 10600 10594 10586 10579 10570 10561 10553 10545 10536 10526 10516 10506 10495 10484 10474 10466 10456 10446 10437 10429 10422 10416 10412 10409 10406 10405 10404 10405 10406 10407 10408 10411 10414 10417 10421 10424 10428 10432 10436 10440 10443 10446 10451 10456 10460 10463 10467 10471 10474 10475 10478 10481 10483 10485 10485 10485 10485
10636 10630 10624 10617 10611 10605 10598 10591 10584 10577 10569 10561 10552 10545 10536 10527 10517 10507 10497 10486 10475 10467 10458 10449 10440 10432 10425 10419 10415 10412 10409 10408 10407 10407 10408 10409 10410 10413 10416 10420 10423 10426 10430 10433 10436 10439 10442 10447 10451 10456 10459 10463 10467 10471 10472 10474 10476 10479 10482 10483 10483 10483 10483
10634 10629 10623 10616 10609 10603 10597 10590 10583 10576 10568 10560 10552 10544 10536 10528 10520 10509 10499 10489 10478 10468 10460 10452 10444 10436 10429 10423 10419 10416 10413 10412 10411 10411 10411 10412 10414 10416 10419 10422 10425 10428 10431 10434 10437 10440 10443 10447 10452 10455 10459 10463 10466 10469 10471 10472 10475 10478 10480 10481 10482 10482 10481
10633 10627 10622 10615 10608 10601 10595 10589 10582 10575 10567 10560 10553 10545 10538 10530 10522 10512 10502 10492 10482 10472 10463 10456 10448 10440 10433 10427 10423 10420 10419 10417 10417 10416 10416 10417 10417 10419 10421 10424 10426 10429 10432 10435 10438 10441 10445 10448 10452 10456 10459 10462 10465 10467 10470 10472 10474 10476 10478 10480 10480 10480 10479
10631 10626 10620 10614 10607 10600 10593 10587 10581 10574 10567 10561 10554 10547 10539 10532 10524 10515 10506 10496 10486 10476 10467 10459 10452 10444 10436 10430 10427 10424 10423 10422 10422 10422 10422 10422 10422 10423 10424 10426 10428 10431 10433 10436 10439 10442 10445 10449 10452 10456 10458 10461 10463 10466 10469 10471 10473 10475 10477 10478 10478 10478 10478
10630 10625 10619 10613 10606 10599 10592 10585 10579 10573 10567 10561 10555 10547 10540 10533 10526 10518 10509 10499 10489 10480 10471 10463 10456 10449 10442 10436 10432 10430 10428 10427 10426 10427 10427 10427 10427 10428 10429 10430 10432 10434 10436 10438 10440 10443 10446 10449 10452 10455 10457 10459 10462 10465 10467 10470 10472 10474 10475 10476 10476 10477 10477
10628 10623 10618 10612 10606 10599 10592 10586 10580 10574 10568 10562 10556 10549 10542 10535 10528 10521 10513 10504 10494 10485 10477 10469 10462 10456 10450 10444 10440 10437 10434 10432 10431 10431 10431 10431 10432 10432 10433 10434 10435 10437 10438 10440 10442 10444 10446 10449 10451 10454 10456 10459 10461 10464 10466 10469 10471 10472 10473 10474 10475 10475 10475
10626 10622 10617 10612 10607 10601 10594 10588 10581 10575 10569 10562 10556 10551 10545 10537 10530 10523 10515 10508 10500 10491 10482 10474 10467 10462 10457 10453 10448 10444 10441 10439 10437 10435 10435 10435 10435 10436 10436 10437 10438 10439 10440 10442 10444 10446 10448 10449 10451 10454 10456 10458 10460 10462 10465 10467 10469 10471 10472 10473 10474 10474 10474
10624 10619 10615 10611 10606 10601 10596 10590 10584 10577 10570 10564 10558 10552 10546 10539 10532 10525 10517 10511 10504 10496 10487 10479 10473 10467 10462 10459 10455 10452 10448 10445 10442 10441 10439 10439 10439 10439 10439 10440 10441 10441 10442 10444 10446 10447 10449 10450 10452 10454 10456 10458 10459 10461 10464 10466 10468 10470 10471 10472 10472 10473 10473
10621 10617 10613 10609 10604 10600 10595 10590 10585 10579 10573 10566 10560 10553 10547 10541 10534 10527 10520 10513 10507 10501 10494 10486 10478 10472 10466 10462 10460 10457 10454 10450 10447 10445 10443 10442 10441 10442 10442 10442 10443 10443 10444 10446 10447 10448 10449 10451 10453 10454 10456 10457 10459 10461 10463 10466 10468 10469 10470 10471 10471 10472 10471
10619 10615 10611 10606 10601 10597 10593 10588 10584 10579 10573 10567 10561 10554 10548 10542 10536 10529 10523 10516 10510 10505 10499 10492 10485 10478 10472 10466 10462 10460 10458 10454 10451 10448 10446 10444 10443 10443 10443 10444 10444 10444 10445 10446 10447 10448 10449 10451 10452 10454 10455 10456 10458 10460 10462 10465 10466 10468 10469 10470 10470 10470 10470
10617 10612 10608 10604 10599 10594 10590 10585 10581 10576 10571 10566 10560 10554 10548 10542 10536 10531 10525 10519 10513 10506 10501 10496 10491 10485 10478 10472 10466 10462 10459 10457 10454 10450 10448 10445 10444 10443 10443 10444 10444 10444 10444 10445 10446 10447 10449 10450 10451 10453 10454 10455 10457 10459 10461 10463 10465 10466 10467 10468 10469 10469 10469
10614 10609 10605 10601 10596 10592 10587 10582 10578 10573 10569 10564 10559 10553 10547 10542 10536 10531 10526 10521 10514 10508 10502 10497 10493 10488 10483 10477 10471 10465 10461 10458 10455 10452 10449 10446 10444 10443 10442 10442 10443 10443 10444 10445 10445 10446 10448 10449 10451 10452 10453 10454 10455 10457 10459 10461 10462 10464 10465 10466 10467 10467 10467
10611 10607 10603 10598 10594 10590 10585 10580 10575 10571 10566 10561 10556 10551 10546 10541 10535 10530 10526 10521 10515 10510 10504 10498 10493 10488 10484 10479 10474 10468 10462 10458 10455 10453 10450 10446 10444 10442 10441 10441 10441 10441 10442 10444 10445 10445 10447 10448 10449 10451 10452 10453 10454 10455 10457 10459 10460 10462 10464 10465 10465 10466 10466